Time,TemperatureF,DewpointF,PressureIn,WindDirection,WindDirectionDegrees,WindSpeedMPH,WindSpeedGustMPH,Humidity,HourlyPrecipIn,Conditions,Clouds,dailyrainin,SolarRadiationWatts/m^2,SoftwareType,DateUTC
2013-10-26 00:01:00,64.2,59.0,30.22,NE,45,2.2,3.1,83,0.00,,,0.00,1213.0,meteobridge,2013-10-26 04:01:00,
2013-10-26 00:02:00,64.2,58.6,30.22,NW,315,1.6,3.1,82,0.00,,,0.00,1213.0,meteobridge,2013-10-26 04:02:00,
2013-10-26 00:07:00,64.0,59.2,30.21,East,90,2.2,2.2,84,0.00,,,0.00,1177.0,meteobridge,2013-10-26 04:07:00,
2013-10-26 00:12:00,63.7,58.8,30.22,North,0,1.6,2.2,84,0.00,,,0.00,1177.0,meteobridge,2013-10-26 04:12:00,
2013-10-26 00:17:00,63.7,59.0,30.21,West,270,2.2,2.2,85,0.00,,,0.00,1177.0,meteobridge,2013-10-26 04:17:00,
2013-10-26 00:23:00,63.7,59.0,30.21,South,180,1.6,1.6,85,0.00,,,0.00,1177.0,meteobridge,2013-10-26 04:23:00,
2013-10-26 00:28:00,63.5,58.8,30.21,NNE,23,2.2,2.2,85,0.00,,,0.00,1177.0,meteobridge,2013-10-26 04:28:00,
2013-10-26 00:33:00,63.5,59.2,30.21,NW,315,2.2,2.2,86,0.00,,,0.00,1177.0,meteobridge,2013-10-26 04:33:00,
2013-10-26 00:38:00,63.7,59.4,30.21,North,0,0.0,3.1,86,0.00,,,0.00,1140.0,meteobridge,2013-10-26 04:38:00,
2013-10-26 00:43:00,63.7,59.4,30.21,South,180,0.7,0.7,86,0.00,,,0.00,1140.0,meteobridge,2013-10-26 04:43:00,
2013-10-26 00:48:00,63.7,59.4,30.21,East,90,1.6,3.1,86,0.00,,,0.00,1140.0,meteobridge,2013-10-26 04:48:00,
2013-10-26 00:54:00,63.9,59.5,30.21,North,0,0.0,0.7,86,0.00,,,0.00,1140.0,meteobridge,2013-10-26 04:54:00,
2013-10-26 00:59:00,63.9,59.5,30.21,NE,45,1.6,1.6,86,0.00,,,0.00,1140.0,meteobridge,2013-10-26 04:59:00,
2013-10-26 01:04:00,63.9,59.5,30.21,NE,45,1.6,2.2,86,0.00,,,0.00,1104.0,meteobridge,2013-10-26 05:04:00,
2013-10-26 01:09:00,63.9,59.5,30.20,NW,315,0.7,1.6,86,0.00,,,0.00,1104.0,meteobridge,2013-10-26 05:09:00,
2013-10-26 01:14:00,64.0,59.7,30.20,East,90,2.2,2.2,86,0.00,,,0.00,1104.0,meteobridge,2013-10-26 05:14:00,
2013-10-26 01:19:00,63.9,59.5,30.20,East,90,1.6,2.2,86,0.00,,,0.00,1104.0,meteobridge,2013-10-26 05:19:00,
2013-10-26 01:24:00,63.9,59.5,30.20,NE,45,0.7,2.2,86,0.00,,,0.00,1104.0,meteobridge,2013-10-26 05:24:00,
2013-10-26 01:30:00,63.9,59.5,30.19,East,90,2.2,3.1,86,0.00,,,0.00,1104.0,meteobridge,2013-10-26 05:30:00,
2013-10-26 01:35:00,63.9,59.5,30.19,East,90,1.6,2.2,86,0.00,,,0.00,1067.0,meteobridge,2013-10-26 05:35:00,
2013-10-26 01:40:00,63.9,59.9,30.19,East,90,3.8,3.8,87,0.00,,,0.00,1067.0,meteobridge,2013-10-26 05:40:00,
2013-10-26 01:45:00,63.9,59.9,30.19,SW,225,2.2,2.2,87,0.00,,,0.00,1067.0,meteobridge,2013-10-26 05:45:00,
2013-10-26 01:50:00,63.7,59.7,30.19,NE,45,1.6,2.2,87,0.00,,,0.00,1067.0,meteobridge,2013-10-26 05:50:00,
2013-10-26 01:55:00,63.5,59.5,30.19,North,0,1.6,2.2,87,0.00,,,0.00,1067.0,meteobridge,2013-10-26 05:55:00,
2013-10-26 02:01:00,63.5,59.9,30.19,NE,45,0.0,0.0,88,0.00,,,0.00,1067.0,meteobridge,2013-10-26 06:01:00,
2013-10-26 02:06:00,63.3,59.7,30.19,NW,315,0.0,0.0,88,0.00,,,0.00,1030.0,meteobridge,2013-10-26 06:06:00,
2013-10-26 02:11:00,63.1,59.5,30.19,South,180,0.0,0.7,88,0.00,,,0.00,1030.0,meteobridge,2013-10-26 06:11:00,
2013-10-26 02:16:00,63.0,59.7,30.19,NE,45,0.0,2.2,89,0.00,,,0.00,1030.0,meteobridge,2013-10-26 06:16:00,
2013-10-26 02:21:00,62.8,59.7,30.19,NW,315,1.6,2.2,90,0.00,,,0.00,1030.0,meteobridge,2013-10-26 06:21:00,
2013-10-26 02:26:00,62.6,59.5,30.18,West,270,1.6,3.1,90,0.00,,,0.00,1030.0,meteobridge,2013-10-26 06:26:00,
2013-10-26 02:32:00,62.4,59.4,30.19,North,0,2.2,2.2,90,0.00,,,0.00,1030.0,meteobridge,2013-10-26 06:32:00,
2013-10-26 02:37:00,62.2,59.5,30.18,North,0,2.2,3.8,91,0.00,,,0.00,994.0,meteobridge,2013-10-26 06:37:00,
2013-10-26 02:42:00,62.2,59.5,30.19,WNW,293,1.6,1.6,91,0.00,,,0.00,994.0,meteobridge,2013-10-26 06:42:00,
2013-10-26 02:47:00,62.1,59.4,30.18,North,0,1.6,1.6,91,0.00,,,0.00,994.0,meteobridge,2013-10-26 06:47:00,
2013-10-26 02:52:00,61.9,59.5,30.18,NW,315,2.2,2.2,92,0.00,,,0.00,994.0,meteobridge,2013-10-26 06:52:00,
2013-10-26 02:57:00,61.7,59.7,30.18,NW,315,2.2,3.1,93,0.00,,,0.00,994.0,meteobridge,2013-10-26 06:57:00,
2013-10-26 03:03:00,61.7,59.7,30.18,NNW,338,1.6,1.6,93,0.00,,,0.00,994.0,meteobridge,2013-10-26 07:03:00,
2013-10-26 03:08:00,61.5,59.7,30.18,West,270,1.6,3.1,94,0.00,,,0.00,994.0,meteobridge,2013-10-26 07:08:00,
2013-10-26 03:13:00,61.5,59.7,30.18,NE,45,3.8,3.8,94,0.00,,,0.00,994.0,meteobridge,2013-10-26 07:13:00,
2013-10-26 03:18:00,61.7,59.9,30.18,SSW,203,3.1,3.1,94,0.00,,,0.00,957.0,meteobridge,2013-10-26 07:18:00,
2013-10-26 03:23:00,61.7,59.9,30.18,NE,45,3.1,3.1,94,0.00,,,0.00,957.0,meteobridge,2013-10-26 07:23:00,
2013-10-26 03:28:00,61.7,59.9,30.18,West,270,3.1,3.1,94,0.00,,,0.00,957.0,meteobridge,2013-10-26 07:28:00,
2013-10-26 03:34:00,61.7,60.3,30.17,North,0,3.1,3.1,95,0.00,,,0.00,957.0,meteobridge,2013-10-26 07:34:00,
2013-10-26 03:39:00,61.7,60.3,30.17,ESE,113,2.2,3.1,95,0.00,,,0.00,957.0,meteobridge,2013-10-26 07:39:00,
2013-10-26 03:44:00,61.5,60.1,30.17,North,0,0.0,3.1,95,0.00,,,0.00,957.0,meteobridge,2013-10-26 07:44:00,
2013-10-26 03:49:00,61.5,60.4,30.16,NE,45,1.6,1.6,96,0.00,,,0.00,957.0,meteobridge,2013-10-26 07:49:00,
2013-10-26 03:54:00,61.5,60.4,30.16,NW,315,0.7,3.1,96,0.00,,,0.00,921.0,meteobridge,2013-10-26 07:54:00,
2013-10-26 03:59:00,61.5,60.4,30.16,North,0,2.2,2.2,96,0.00,,,0.00,921.0,meteobridge,2013-10-26 07:59:00,
2013-10-26 04:05:00,61.5,60.4,30.16,NE,45,0.7,1.6,96,0.00,,,0.00,921.0,meteobridge,2013-10-26 08:05:00,
2013-10-26 04:10:00,61.3,60.3,30.16,NE,45,2.2,3.1,96,0.00,,,0.00,921.0,meteobridge,2013-10-26 08:10:00,
2013-10-26 04:15:00,61.5,60.6,30.16,North,0,2.2,3.1,97,0.00,,,0.00,921.0,meteobridge,2013-10-26 08:15:00,
2013-10-26 04:20:00,61.3,60.4,30.16,NE,45,3.1,3.1,97,0.00,,,0.00,921.0,meteobridge,2013-10-26 08:20:00,
2013-10-26 04:25:00,61.5,61.0,30.16,NE,45,0.7,2.2,98,0.00,,,0.00,921.0,meteobridge,2013-10-26 08:25:00,
2013-10-26 04:30:00,61.3,60.8,30.16,North,0,0.0,3.8,98,0.00,,,0.00,921.0,meteobridge,2013-10-26 08:30:00,
2013-10-26 04:36:00,61.2,60.6,30.16,NNE,23,0.0,3.1,98,0.00,,,0.00,884.0,meteobridge,2013-10-26 08:36:00,
2013-10-26 04:41:00,61.2,60.6,30.16,NE,45,1.6,1.6,98,0.00,,,0.00,884.0,meteobridge,2013-10-26 08:41:00,
2013-10-26 04:46:00,61.0,60.4,30.16,NW,315,1.6,2.2,98,0.00,,,0.00,884.0,meteobridge,2013-10-26 08:46:00,
2013-10-26 04:51:00,61.0,60.4,30.16,NW,315,0.7,1.6,98,0.00,,,0.00,884.0,meteobridge,2013-10-26 08:51:00,
2013-10-26 04:56:00,60.8,60.3,30.16,West,270,0.7,0.7,98,0.00,,,0.00,884.0,meteobridge,2013-10-26 08:56:00,
2013-10-26 05:01:00,60.8,60.4,30.16,West,270,0.7,1.6,99,0.00,,,0.00,884.0,meteobridge,2013-10-26 09:01:00,
2013-10-26 05:07:00,60.6,60.3,30.16,North,0,1.6,2.2,99,0.00,,,0.00,884.0,meteobridge,2013-10-26 09:07:00,
2013-10-26 05:12:00,60.6,60.3,30.16,North,0,0.0,0.7,99,0.00,,,0.00,884.0,meteobridge,2013-10-26 09:12:00,
2013-10-26 05:17:00,60.4,60.1,30.16,North,0,0.7,0.7,99,0.00,,,0.00,884.0,meteobridge,2013-10-26 09:17:00,
2013-10-26 05:22:00,60.4,60.1,30.16,West,270,0.0,0.0,99,0.00,,,0.00,884.0,meteobridge,2013-10-26 09:22:00,
2013-10-26 05:27:00,60.3,59.9,30.16,North,0,0.7,1.6,99,0.00,,,0.00,847.0,meteobridge,2013-10-26 09:27:00,
2013-10-26 05:32:00,60.1,59.7,30.16,NE,45,0.7,1.6,99,0.00,,,0.00,847.0,meteobridge,2013-10-26 09:32:00,
2013-10-26 05:38:00,59.9,59.5,30.16,West,270,1.6,1.6,99,0.00,,,0.00,847.0,meteobridge,2013-10-26 09:38:00,
2013-10-26 05:43:00,59.7,59.4,30.16,NW,315,1.6,2.2,99,0.00,,,0.00,847.0,meteobridge,2013-10-26 09:43:00,
2013-10-26 05:48:00,59.7,59.4,30.16,North,0,1.6,1.6,99,0.00,,,0.00,847.0,meteobridge,2013-10-26 09:48:00,
2013-10-26 05:53:00,59.7,59.4,30.16,North,0,1.6,1.6,99,0.00,,,0.00,847.0,meteobridge,2013-10-26 09:53:00,
2013-10-26 05:58:00,59.9,59.5,30.17,West,270,0.0,0.0,99,0.00,,,0.00,847.0,meteobridge,2013-10-26 09:58:00,
2013-10-26 06:03:00,59.7,59.4,30.17,West,270,0.7,0.7,99,0.00,,,0.00,811.0,meteobridge,2013-10-26 10:03:00,
2013-10-26 06:09:00,59.5,59.2,30.17,NW,315,0.0,0.0,99,0.00,,,0.00,811.0,meteobridge,2013-10-26 10:09:00,
2013-10-26 06:14:00,59.5,59.2,30.17,NW,315,0.7,0.7,99,0.00,,,0.00,811.0,meteobridge,2013-10-26 10:14:00,
2013-10-26 06:19:00,59.4,59.0,30.17,WNW,293,0.0,0.7,99,0.00,,,0.00,811.0,meteobridge,2013-10-26 10:19:00,
2013-10-26 06:24:00,59.2,58.8,30.17,NW,315,1.6,1.6,99,0.00,,,0.00,811.0,meteobridge,2013-10-26 10:24:00,
2013-10-26 06:29:00,59.2,58.8,30.18,West,270,0.7,0.7,99,0.00,,,0.00,811.0,meteobridge,2013-10-26 10:29:00,
2013-10-26 06:34:00,59.2,58.8,30.18,North,0,1.6,1.6,99,0.00,,,0.00,811.0,meteobridge,2013-10-26 10:34:00,
2013-10-26 06:40:00,59.2,58.8,30.18,North,0,0.7,1.6,99,0.00,,,0.00,811.0,meteobridge,2013-10-26 10:40:00,
2013-10-26 06:45:00,59.0,58.6,30.18,NE,45,0.7,1.6,99,0.00,,,0.00,811.0,meteobridge,2013-10-26 10:45:00,
2013-10-26 06:50:00,59.2,58.8,30.19,West,270,0.0,0.0,99,0.00,,,0.00,811.0,meteobridge,2013-10-26 10:50:00,
2013-10-26 06:55:00,59.2,58.8,30.19,NNW,338,0.0,0.0,99,0.00,,,0.00,774.0,meteobridge,2013-10-26 10:55:00,
2013-10-26 07:00:00,59.2,58.8,30.19,NW,315,1.6,1.6,99,0.00,,,0.00,774.0,meteobridge,2013-10-26 11:00:00,
2013-10-26 07:05:00,59.2,58.8,30.19,North,0,1.6,3.1,99,0.00,,,0.00,774.0,meteobridge,2013-10-26 11:05:00,
2013-10-26 07:11:00,59.2,58.8,30.19,NW,315,0.7,2.2,99,0.00,,,0.00,774.0,meteobridge,2013-10-26 11:11:00,
2013-10-26 07:16:00,59.4,59.0,30.19,North,0,2.2,2.2,99,0.00,,,0.00,774.0,meteobridge,2013-10-26 11:16:00,
2013-10-26 07:21:00,59.4,59.0,30.19,NW,315,1.6,3.1,99,0.00,,,0.00,774.0,meteobridge,2013-10-26 11:21:00,
2013-10-26 07:26:00,59.4,59.0,30.19,East,90,0.0,1.6,99,0.00,,,0.00,774.0,meteobridge,2013-10-26 11:26:00,
2013-10-26 07:31:00,59.4,59.0,30.19,NE,45,0.0,0.0,99,0.00,,,0.00,774.0,meteobridge,2013-10-26 11:31:00,
2013-10-26 07:37:00,59.4,59.0,30.20,NNE,23,0.0,1.6,99,0.00,,,0.00,774.0,meteobridge,2013-10-26 11:37:00,
2013-10-26 07:42:00,59.5,59.2,30.20,NW,315,0.0,0.0,99,0.00,,,0.00,774.0,meteobridge,2013-10-26 11:42:00,
2013-10-26 07:47:00,59.5,59.2,30.21,WNW,293,0.0,0.0,99,0.00,,,0.00,774.0,meteobridge,2013-10-26 11:47:00,
2013-10-26 07:52:00,59.5,59.2,30.20,North,0,0.0,0.0,99,0.00,,,0.00,774.0,meteobridge,2013-10-26 11:52:00,
2013-10-26 07:57:00,59.5,59.2,30.21,SW,225,0.7,3.8,99,0.00,,,0.00,774.0,meteobridge,2013-10-26 11:57:00,
2013-10-26 08:02:00,59.5,59.2,30.20,West,270,0.0,1.6,99,0.00,,,0.00,774.0,meteobridge,2013-10-26 12:02:00,
2013-10-26 08:08:00,59.5,59.2,30.21,North,0,0.0,0.0,99,0.00,,,0.00,774.0,meteobridge,2013-10-26 12:08:00,
2013-10-26 08:13:00,59.7,59.4,30.21,NW,315,0.0,0.0,99,0.00,,,0.00,774.0,meteobridge,2013-10-26 12:13:00,
2013-10-26 08:18:00,60.1,59.7,30.20,West,270,0.0,0.0,99,0.00,,,0.00,774.0,meteobridge,2013-10-26 12:18:00,
2013-10-26 08:23:00,61.5,61.2,30.20,East,90,3.1,3.1,99,0.00,,,0.00,774.0,meteobridge,2013-10-26 12:23:00,
2013-10-26 08:28:00,62.6,62.2,30.21,East,90,4.5,4.5,99,0.00,,,0.00,774.0,meteobridge,2013-10-26 12:28:00,
2013-10-26 08:33:00,63.9,63.5,30.21,NNE,23,3.1,3.1,99,0.00,,,0.00,774.0,meteobridge,2013-10-26 12:33:00,
2013-10-26 08:39:00,64.4,63.3,30.21,North,0,2.2,2.2,96,0.00,,,0.00,774.0,meteobridge,2013-10-26 12:39:00,
2013-10-26 08:44:00,64.0,62.6,30.21,West,270,2.2,2.2,95,0.00,,,0.00,774.0,meteobridge,2013-10-26 12:44:00,
2013-10-26 08:49:00,64.0,62.2,30.21,NE,45,2.2,2.2,94,0.00,,,0.00,774.0,meteobridge,2013-10-26 12:49:00,
2013-10-26 08:54:00,64.0,62.6,30.21,NE,45,3.8,4.5,95,0.00,,,0.00,774.0,meteobridge,2013-10-26 12:54:00,
2013-10-26 08:59:00,64.6,62.8,30.21,East,90,4.5,6.0,94,0.00,,,0.00,774.0,meteobridge,2013-10-26 12:59:00,
2013-10-26 09:04:00,64.4,62.1,30.22,North,0,3.8,3.8,92,0.00,,,0.00,774.0,meteobridge,2013-10-26 13:04:00,
2013-10-26 09:10:00,64.4,62.1,30.22,East,90,5.4,6.0,92,0.00,,,0.00,774.0,meteobridge,2013-10-26 13:10:00,
2013-10-26 09:15:00,64.8,62.4,30.22,North,0,3.8,3.8,92,0.00,,,0.00,774.0,meteobridge,2013-10-26 13:15:00,
2013-10-26 09:20:00,65.5,62.8,30.22,NW,315,4.5,4.5,91,0.00,,,0.00,774.0,meteobridge,2013-10-26 13:20:00,
2013-10-26 09:25:00,65.7,62.2,30.22,East,90,4.5,4.5,89,0.00,,,0.00,774.0,meteobridge,2013-10-26 13:25:00,
2013-10-26 09:30:00,65.8,61.9,30.23,East,90,6.0,6.9,87,0.00,,,0.00,774.0,meteobridge,2013-10-26 13:30:00,
2013-10-26 09:35:00,66.2,62.6,30.23,East,90,3.1,3.1,88,0.00,,,0.00,774.0,meteobridge,2013-10-26 13:35:00,
2013-10-26 09:41:00,67.1,62.8,30.23,East,90,3.1,5.4,86,0.00,,,0.00,774.0,meteobridge,2013-10-26 13:41:00,
2013-10-26 09:46:00,67.1,62.4,30.23,East,90,4.5,5.4,85,0.00,,,0.00,774.0,meteobridge,2013-10-26 13:46:00,
2013-10-26 09:51:00,67.5,63.1,30.23,East,90,3.8,6.0,86,0.00,,,0.00,774.0,meteobridge,2013-10-26 13:51:00,
2013-10-26 09:56:00,68.0,63.0,30.23,SE,135,6.0,6.0,84,0.00,,,0.00,774.0,meteobridge,2013-10-26 13:56:00,
2013-10-26 10:01:00,68.4,63.0,30.23,NE,45,6.0,6.0,83,0.00,,,0.00,774.0,meteobridge,2013-10-26 14:01:00,
2013-10-26 10:06:00,68.9,62.1,30.23,NNE,23,5.4,6.0,79,0.00,,,0.00,811.0,meteobridge,2013-10-26 14:06:00,
2013-10-26 10:12:00,69.4,61.9,30.23,East,90,6.0,6.9,77,0.00,,,0.00,811.0,meteobridge,2013-10-26 14:12:00,
2013-10-26 10:17:00,69.8,62.2,30.23,SE,135,5.4,5.4,77,0.00,,,0.00,811.0,meteobridge,2013-10-26 14:17:00,
2013-10-26 10:22:00,70.3,62.1,30.23,NE,45,6.9,6.9,75,0.00,,,0.00,811.0,meteobridge,2013-10-26 14:22:00,
2013-10-26 10:27:00,71.2,63.0,30.23,East,90,4.5,4.5,75,0.00,,,0.00,811.0,meteobridge,2013-10-26 14:27:00,
2013-10-26 10:32:00,72.0,62.4,30.23,South,180,3.1,6.9,72,0.00,,,0.00,811.0,meteobridge,2013-10-26 14:32:00,
2013-10-26 10:37:00,72.1,61.9,30.23,North,0,3.8,7.6,70,0.00,,,0.00,811.0,meteobridge,2013-10-26 14:37:00,
2013-10-26 10:43:00,72.5,61.7,30.22,NW,315,2.2,3.8,69,0.00,,,0.00,811.0,meteobridge,2013-10-26 14:43:00,
2013-10-26 10:48:00,73.0,61.9,30.23,East,90,3.8,4.5,68,0.00,,,0.00,811.0,meteobridge,2013-10-26 14:48:00,
2013-10-26 10:53:00,73.4,62.6,30.22,ESE,113,2.2,3.8,69,0.00,,,0.00,811.0,meteobridge,2013-10-26 14:53:00,
2013-10-26 10:58:00,74.1,61.5,30.22,East,90,3.8,3.8,65,0.00,,,0.00,847.0,meteobridge,2013-10-26 14:58:00,
2013-10-26 11:03:00,74.8,62.8,30.23,North,0,3.8,3.8,66,0.00,,,0.00,847.0,meteobridge,2013-10-26 15:03:00,
2013-10-26 11:08:00,75.9,62.8,30.22,SE,135,1.6,3.8,64,0.00,,,0.00,847.0,meteobridge,2013-10-26 15:08:00,
2013-10-26 11:14:00,76.3,62.2,30.22,SE,135,4.5,4.5,62,0.00,,,0.00,847.0,meteobridge,2013-10-26 15:14:00,
2013-10-26 11:19:00,75.9,61.5,30.22,East,90,3.8,3.8,61,0.00,,,0.00,847.0,meteobridge,2013-10-26 15:19:00,
2013-10-26 11:24:00,76.3,61.9,30.22,South,180,2.2,3.1,61,0.00,,,0.00,847.0,meteobridge,2013-10-26 15:24:00,
2013-10-26 11:29:00,76.6,62.6,30.22,North,0,1.6,1.6,62,0.00,,,0.00,847.0,meteobridge,2013-10-26 15:29:00,
2013-10-26 11:34:00,77.2,61.7,30.22,South,180,1.6,3.1,59,0.00,,,0.00,847.0,meteobridge,2013-10-26 15:34:00,
2013-10-26 11:39:00,78.3,62.8,30.22,NE,45,1.6,1.6,59,0.00,,,0.00,847.0,meteobridge,2013-10-26 15:39:00,
2013-10-26 11:45:00,78.4,62.4,30.22,SW,225,0.7,1.6,58,0.00,,,0.00,884.0,meteobridge,2013-10-26 15:45:00,
2013-10-26 11:50:00,78.4,59.4,30.22,NE,45,3.8,3.8,52,0.00,,,0.00,884.0,meteobridge,2013-10-26 15:50:00,
2013-10-26 11:55:00,78.6,60.6,30.21,NNE,23,2.2,3.8,54,0.00,,,0.00,884.0,meteobridge,2013-10-26 15:55:00,
2013-10-26 12:00:00,78.8,59.2,30.21,SE,135,3.1,3.1,51,0.00,,,0.00,884.0,meteobridge,2013-10-26 16:00:00,
2013-10-26 12:05:00,79.0,60.4,30.21,NE,45,3.8,3.8,53,0.00,,,0.00,884.0,meteobridge,2013-10-26 16:05:00,
2013-10-26 12:10:00,79.2,59.0,30.20,WSW,248,3.1,4.5,50,0.00,,,0.00,884.0,meteobridge,2013-10-26 16:10:00,
2013-10-26 12:15:00,79.7,58.3,30.20,SE,135,2.2,2.2,48,0.00,,,0.00,884.0,meteobridge,2013-10-26 16:15:00,
2013-10-26 12:21:00,79.9,55.4,30.20,North,0,3.8,3.8,43,0.00,,,0.00,884.0,meteobridge,2013-10-26 16:21:00,
2013-10-26 12:26:00,81.1,54.5,30.20,ENE,68,2.2,3.8,40,0.00,,,0.00,884.0,meteobridge,2013-10-26 16:26:00,
2013-10-26 12:31:00,81.7,55.8,30.20,East,90,1.6,3.1,41,0.00,,,0.00,884.0,meteobridge,2013-10-26 16:31:00,
2013-10-26 12:36:00,81.9,54.5,30.19,NNW,338,2.2,3.8,39,0.00,,,0.00,884.0,meteobridge,2013-10-26 16:36:00,
2013-10-26 12:41:00,82.2,54.9,30.19,NW,315,2.2,2.2,39,0.00,,,0.00,884.0,meteobridge,2013-10-26 16:41:00,
2013-10-26 12:46:00,82.4,52.0,30.19,NE,45,3.1,3.1,35,0.00,,,0.00,884.0,meteobridge,2013-10-26 16:46:00,
2013-10-26 12:52:00,82.9,50.9,30.19,SE,135,3.1,3.1,33,0.00,,,0.00,884.0,meteobridge,2013-10-26 16:52:00,
2013-10-26 12:57:00,82.6,54.3,30.18,SW,225,3.1,3.1,38,0.00,,,0.00,921.0,meteobridge,2013-10-26 16:57:00,
2013-10-26 13:02:00,82.4,49.6,30.18,East,90,2.2,3.8,32,0.00,,,0.00,921.0,meteobridge,2013-10-26 17:02:00,
2013-10-26 13:07:00,82.2,46.8,30.17,North,0,3.1,3.8,29,0.00,,,0.00,921.0,meteobridge,2013-10-26 17:07:00,
2013-10-26 13:12:00,82.8,43.3,30.17,North,0,3.1,3.1,25,0.00,,,0.00,921.0,meteobridge,2013-10-26 17:12:00,
2013-10-26 13:17:00,83.5,41.7,30.17,East,90,3.1,3.8,23,0.00,,,0.00,921.0,meteobridge,2013-10-26 17:17:00,
2013-10-26 13:23:00,83.5,47.8,30.17,North,0,3.8,3.8,29,0.00,,,0.00,921.0,meteobridge,2013-10-26 17:23:00,
2013-10-26 13:28:00,83.5,45.0,30.17,WNW,293,3.1,4.5,26,0.00,,,0.00,921.0,meteobridge,2013-10-26 17:28:00,
2013-10-26 13:33:00,84.0,47.5,30.16,South,180,0.7,2.2,28,0.00,,,0.00,921.0,meteobridge,2013-10-26 17:33:00,
2013-10-26 13:38:00,83.5,46.9,30.16,NE,45,3.8,4.5,28,0.00,,,0.00,921.0,meteobridge,2013-10-26 17:38:00,
2013-10-26 13:43:00,82.2,46.8,30.16,NW,315,3.1,3.1,29,0.00,,,0.00,921.0,meteobridge,2013-10-26 17:43:00,
2013-10-26 13:48:00,82.2,51.1,30.16,West,270,4.5,6.0,34,0.00,,,0.00,957.0,meteobridge,2013-10-26 17:48:00,
2013-10-26 13:54:00,82.8,49.8,30.15,North,0,2.2,3.1,32,0.00,,,0.00,957.0,meteobridge,2013-10-26 17:54:00,
2013-10-26 13:59:00,83.5,51.4,30.15,NW,315,2.2,2.2,33,0.00,,,0.00,957.0,meteobridge,2013-10-26 17:59:00,
2013-10-26 14:04:00,84.2,52.7,30.15,West,270,1.6,2.2,34,0.00,,,0.00,957.0,meteobridge,2013-10-26 18:04:00,
2013-10-26 14:09:00,84.6,48.7,30.14,NE,45,3.1,3.1,29,0.00,,,0.00,957.0,meteobridge,2013-10-26 18:09:00,
2013-10-26 14:14:00,85.5,48.6,30.14,West,270,6.0,6.0,28,0.00,,,0.00,957.0,meteobridge,2013-10-26 18:14:00,
2013-10-26 14:19:00,85.6,48.7,30.14,West,270,3.8,6.0,28,0.00,,,0.00,957.0,meteobridge,2013-10-26 18:19:00,
2013-10-26 14:25:00,85.3,47.5,30.14,West,270,2.2,3.1,27,0.00,,,0.00,957.0,meteobridge,2013-10-26 18:25:00,
2013-10-26 14:30:00,85.3,52.2,30.14,South,180,0.7,3.1,32,0.00,,,0.00,957.0,meteobridge,2013-10-26 18:30:00,
2013-10-26 14:35:00,85.5,47.7,30.13,NW,315,3.8,4.5,27,0.00,,,0.00,994.0,meteobridge,2013-10-26 18:35:00,
2013-10-26 14:40:00,85.5,48.6,30.13,North,0,3.8,6.0,28,0.00,,,0.00,994.0,meteobridge,2013-10-26 18:40:00,
2013-10-26 14:45:00,85.1,44.2,30.13,NE,45,6.0,6.0,24,0.00,,,0.00,994.0,meteobridge,2013-10-26 18:45:00,
2013-10-26 14:50:00,84.9,44.1,30.13,NW,315,4.5,4.5,24,0.00,,,0.00,994.0,meteobridge,2013-10-26 18:50:00,
2013-10-26 14:56:00,84.7,42.8,30.13,NW,315,3.1,3.8,23,0.00,,,0.00,994.0,meteobridge,2013-10-26 18:56:00,
2013-10-26 15:01:00,84.6,42.6,30.13,North,0,3.1,4.5,23,0.00,,,0.00,994.0,meteobridge,2013-10-26 19:01:00,
2013-10-26 15:06:00,84.9,44.1,30.13,North,0,0.7,3.8,24,0.00,,,0.00,1030.0,meteobridge,2013-10-26 19:06:00,
2013-10-26 15:11:00,84.7,43.9,30.12,ENE,68,3.1,3.1,24,0.00,,,0.00,1030.0,meteobridge,2013-10-26 19:11:00,
2013-10-26 15:16:00,84.6,45.0,30.12,South,180,1.6,1.6,25,0.00,,,0.00,1030.0,meteobridge,2013-10-26 19:16:00,
2013-10-26 15:21:00,84.6,45.0,30.12,NNE,23,3.1,3.1,25,0.00,,,0.00,1030.0,meteobridge,2013-10-26 19:21:00,
2013-10-26 15:27:00,85.1,45.3,30.12,WNW,293,4.5,4.5,25,0.00,,,0.00,1030.0,meteobridge,2013-10-26 19:27:00,
2013-10-26 15:32:00,85.5,45.7,30.12,SW,225,5.4,5.4,25,0.00,,,0.00,1030.0,meteobridge,2013-10-26 19:32:00,
2013-10-26 15:37:00,85.5,47.7,30.12,West,270,3.8,3.8,27,0.00,,,0.00,1030.0,meteobridge,2013-10-26 19:37:00,
2013-10-26 15:42:00,85.1,46.4,30.12,NW,315,2.2,3.1,26,0.00,,,0.00,1030.0,meteobridge,2013-10-26 19:42:00,
2013-10-26 15:47:00,85.3,49.5,30.11,East,90,1.6,5.4,29,0.00,,,0.00,1067.0,meteobridge,2013-10-26 19:47:00,
2013-10-26 15:52:00,85.6,48.7,30.11,West,270,2.2,3.1,28,0.00,,,0.00,1067.0,meteobridge,2013-10-26 19:52:00,
2013-10-26 15:58:00,85.8,46.9,30.11,NW,315,4.5,4.5,26,0.00,,,0.00,1067.0,meteobridge,2013-10-26 19:58:00,
2013-10-26 16:03:00,85.8,45.9,30.11,North,0,5.4,5.4,25,0.00,,,0.00,1067.0,meteobridge,2013-10-26 20:03:00,
2013-10-26 16:08:00,84.7,46.0,30.11,NW,315,6.0,6.9,26,0.00,,,0.00,1067.0,meteobridge,2013-10-26 20:08:00,
2013-10-26 16:13:00,84.9,50.0,30.11,NW,315,4.5,4.5,30,0.00,,,0.00,1067.0,meteobridge,2013-10-26 20:13:00,
2013-10-26 16:18:00,84.7,50.7,30.11,West,270,6.0,6.9,31,0.00,,,0.00,1067.0,meteobridge,2013-10-26 20:18:00,
2013-10-26 16:23:00,84.0,50.9,30.11,NW,315,5.4,6.0,32,0.00,,,0.00,1067.0,meteobridge,2013-10-26 20:23:00,
2013-10-26 16:29:00,83.5,51.4,30.11,WSW,248,7.6,9.2,33,0.00,,,0.00,1067.0,meteobridge,2013-10-26 20:29:00,
2013-10-26 16:34:00,83.1,51.1,30.11,North,0,6.0,6.9,33,0.00,,,0.00,1067.0,meteobridge,2013-10-26 20:34:00,
2013-10-26 16:39:00,82.9,50.9,30.11,NW,315,6.9,6.9,33,0.00,,,0.00,1067.0,meteobridge,2013-10-26 20:39:00,
2013-10-26 16:44:00,82.8,49.8,30.11,NW,315,9.2,9.2,32,0.00,,,0.00,1067.0,meteobridge,2013-10-26 20:44:00,
2013-10-26 16:49:00,82.4,52.0,30.11,NW,315,5.4,5.4,35,0.00,,,0.00,1067.0,meteobridge,2013-10-26 20:49:00,
2013-10-26 16:55:00,82.4,52.0,30.11,NW,315,3.1,3.8,35,0.00,,,0.00,1067.0,meteobridge,2013-10-26 20:55:00,
2013-10-26 17:00:00,82.2,51.1,30.11,NW,315,5.4,9.2,34,0.00,,,0.00,1067.0,meteobridge,2013-10-26 21:00:00,
2013-10-26 17:05:00,82.0,51.6,30.11,NNW,338,3.8,4.5,35,0.00,,,0.00,1067.0,meteobridge,2013-10-26 21:05:00,
2013-10-26 17:10:00,81.5,52.0,30.11,SE,135,3.8,5.4,36,0.00,,,0.00,1067.0,meteobridge,2013-10-26 21:10:00,
2013-10-26 17:15:00,81.0,51.4,30.11,West,270,3.8,7.6,36,0.00,,,0.00,1067.0,meteobridge,2013-10-26 21:15:00,
2013-10-26 17:20:00,80.2,50.9,30.11,NNE,23,4.5,8.3,36,0.00,,,0.00,1067.0,meteobridge,2013-10-26 21:20:00,
2013-10-26 17:26:00,79.5,50.9,30.11,East,90,3.8,5.4,37,0.00,,,0.00,1067.0,meteobridge,2013-10-26 21:26:00,
2013-10-26 17:31:00,79.0,49.8,30.11,North,0,8.3,8.3,36,0.00,,,0.00,1067.0,meteobridge,2013-10-26 21:31:00,
2013-10-26 17:36:00,78.4,50.0,30.11,West,270,5.4,5.4,37,0.00,,,0.00,1030.0,meteobridge,2013-10-26 21:36:00,
2013-10-26 17:41:00,78.1,49.6,30.11,NNW,338,4.5,5.4,37,0.00,,,0.00,1030.0,meteobridge,2013-10-26 21:41:00,
2013-10-26 17:46:00,77.7,49.5,30.11,West,270,5.4,7.6,37,0.00,,,0.00,1030.0,meteobridge,2013-10-26 21:46:00,
2013-10-26 17:51:00,77.7,47.8,30.11,North,0,9.2,9.2,35,0.00,,,0.00,1030.0,meteobridge,2013-10-26 21:51:00,
2013-10-26 17:57:00,77.4,48.4,30.11,WNW,293,3.8,3.8,36,0.00,,,0.00,1030.0,meteobridge,2013-10-26 21:57:00,
2013-10-26 18:02:00,77.2,48.2,30.11,West,270,3.8,3.8,36,0.00,,,0.00,1030.0,meteobridge,2013-10-26 22:02:00,
2013-10-26 18:07:00,76.8,46.4,30.11,North,0,3.8,5.4,34,0.00,,,0.00,1030.0,meteobridge,2013-10-26 22:07:00,
2013-10-26 18:12:00,76.5,46.8,30.11,NW,315,3.8,5.4,35,0.00,,,0.00,1030.0,meteobridge,2013-10-26 22:12:00,
2013-10-26 18:17:00,76.1,50.7,30.11,WNW,293,6.0,6.0,41,0.00,,,0.00,994.0,meteobridge,2013-10-26 22:17:00,
2013-10-26 18:22:00,75.6,51.4,30.11,West,270,3.8,3.8,43,0.00,,,0.00,994.0,meteobridge,2013-10-26 22:22:00,
2013-10-26 18:28:00,75.0,52.9,30.11,West,270,5.4,5.4,46,0.00,,,0.00,994.0,meteobridge,2013-10-26 22:28:00,
2013-10-26 18:33:00,74.3,54.5,30.11,West,270,3.8,6.0,50,0.00,,,0.00,994.0,meteobridge,2013-10-26 22:33:00,
2013-10-26 18:38:00,73.9,54.7,30.11,West,270,3.1,3.1,51,0.00,,,0.00,994.0,meteobridge,2013-10-26 22:38:00,
2013-10-26 18:43:00,73.4,55.2,30.11,West,270,0.7,2.2,53,0.00,,,0.00,994.0,meteobridge,2013-10-26 22:43:00,
2013-10-26 18:48:00,73.0,55.4,30.11,NW,315,1.6,3.8,54,0.00,,,0.00,994.0,meteobridge,2013-10-26 22:48:00,
2013-10-26 18:53:00,72.7,55.6,30.11,West,270,3.1,3.1,55,0.00,,,0.00,994.0,meteobridge,2013-10-26 22:53:00,
2013-10-26 18:59:00,72.3,55.8,30.11,West,270,0.7,0.7,56,0.00,,,0.00,994.0,meteobridge,2013-10-26 22:59:00,
2013-10-26 19:04:00,71.8,55.8,30.11,NW,315,1.6,2.2,57,0.00,,,0.00,994.0,meteobridge,2013-10-26 23:04:00,
2013-10-26 19:09:00,71.4,56.3,30.11,West,270,3.1,3.1,59,0.00,,,0.00,957.0,meteobridge,2013-10-26 23:09:00,
2013-10-26 19:14:00,71.1,56.5,30.11,NW,315,1.6,1.6,60,0.00,,,0.00,957.0,meteobridge,2013-10-26 23:14:00,
2013-10-26 19:19:00,70.5,56.5,30.11,North,0,0.7,2.2,61,0.00,,,0.00,957.0,meteobridge,2013-10-26 23:19:00,
2013-10-26 19:24:00,70.2,56.5,30.12,West,270,0.7,1.6,62,0.00,,,0.00,957.0,meteobridge,2013-10-26 23:24:00,
2013-10-26 19:30:00,69.8,56.7,30.12,SW,225,0.0,1.6,63,0.00,,,0.00,957.0,meteobridge,2013-10-26 23:30:00,
2013-10-26 19:35:00,69.4,56.7,30.12,SW,225,0.7,1.6,64,0.00,,,0.00,921.0,meteobridge,2013-10-26 23:35:00,
2013-10-26 19:40:00,69.3,57.4,30.12,SE,135,0.0,0.0,66,0.00,,,0.00,921.0,meteobridge,2013-10-26 23:40:00,
2013-10-26 19:45:00,69.1,57.7,30.12,SSW,203,0.7,1.6,67,0.00,,,0.00,921.0,meteobridge,2013-10-26 23:45:00,
2013-10-26 19:50:00,68.7,57.7,30.12,North,0,0.7,0.7,68,0.00,,,0.00,921.0,meteobridge,2013-10-26 23:50:00,
2013-10-26 19:55:00,68.5,57.9,30.12,West,270,0.0,0.0,69,0.00,,,0.00,921.0,meteobridge,2013-10-26 23:55:00,
2013-10-26 20:01:00,68.5,58.8,30.12,West,270,0.0,0.0,71,0.00,,,0.00,921.0,meteobridge,2013-10-27 00:01:00,
2013-10-26 20:06:00,68.2,58.5,30.13,North,0,0.0,0.0,71,0.00,,,0.00,884.0,meteobridge,2013-10-27 00:06:00,
2013-10-26 20:11:00,68.0,58.6,30.13,NW,315,0.7,1.6,72,0.00,,,0.00,884.0,meteobridge,2013-10-27 00:11:00,
2013-10-26 20:16:00,67.8,58.8,30.13,West,270,1.6,1.6,73,0.00,,,0.00,884.0,meteobridge,2013-10-27 00:16:00,
2013-10-26 20:21:00,67.6,59.0,30.14,West,270,0.0,0.7,74,0.00,,,0.00,884.0,meteobridge,2013-10-27 00:21:00,
2013-10-26 20:26:00,67.3,59.0,30.14,West,270,0.7,0.7,75,0.00,,,0.00,884.0,meteobridge,2013-10-27 00:26:00,
2013-10-26 20:32:00,67.1,59.4,30.14,NW,315,2.2,2.2,76,0.00,,,0.00,884.0,meteobridge,2013-10-27 00:32:00,
2013-10-26 20:37:00,67.1,59.7,30.14,West,270,1.6,1.6,77,0.00,,,0.00,847.0,meteobridge,2013-10-27 00:37:00,
2013-10-26 20:42:00,67.1,59.7,30.14,WNW,293,1.6,1.6,77,0.00,,,0.00,847.0,meteobridge,2013-10-27 00:42:00,
2013-10-26 20:47:00,66.9,59.9,30.14,NE,45,1.6,1.6,78,0.00,,,0.00,847.0,meteobridge,2013-10-27 00:47:00,
2013-10-26 20:52:00,66.9,59.9,30.14,South,180,2.2,2.2,78,0.00,,,0.00,847.0,meteobridge,2013-10-27 00:52:00,
2013-10-26 20:57:00,67.1,60.4,30.15,WSW,248,2.2,2.2,79,0.00,,,0.00,847.0,meteobridge,2013-10-27 00:57:00,
2013-10-26 21:03:00,67.3,60.3,30.15,West,270,2.2,3.1,78,0.00,,,0.00,847.0,meteobridge,2013-10-27 01:03:00,
2013-10-26 21:08:00,67.3,60.3,30.15,NW,315,1.6,3.1,78,0.00,,,0.00,811.0,meteobridge,2013-10-27 01:08:00,
2013-10-26 21:13:00,67.1,60.1,30.15,South,180,1.6,3.1,78,0.00,,,0.00,811.0,meteobridge,2013-10-27 01:13:00,
2013-10-26 21:18:00,66.9,59.9,30.15,NW,315,3.1,3.1,78,0.00,,,0.00,811.0,meteobridge,2013-10-27 01:18:00,
2013-10-26 21:23:00,66.9,60.3,30.15,SW,225,0.7,3.1,79,0.00,,,0.00,811.0,meteobridge,2013-10-27 01:23:00,
2013-10-26 21:28:00,66.7,60.1,30.15,WSW,248,0.0,1.6,79,0.00,,,0.00,774.0,meteobridge,2013-10-27 01:28:00,
2013-10-26 21:34:00,66.6,59.9,30.15,SW,225,1.6,2.2,79,0.00,,,0.00,774.0,meteobridge,2013-10-27 01:34:00,
2013-10-26 21:39:00,66.4,60.1,30.15,North,0,3.8,3.8,80,0.00,,,0.00,774.0,meteobridge,2013-10-27 01:39:00,
2013-10-26 21:44:00,66.6,60.3,30.15,North,0,1.6,1.6,80,0.00,,,0.00,774.0,meteobridge,2013-10-27 01:44:00,
2013-10-26 21:49:00,66.6,60.6,30.14,North,0,1.6,2.2,81,0.00,,,0.00,774.0,meteobridge,2013-10-27 01:49:00,
2013-10-26 21:54:00,66.4,60.4,30.14,NW,315,0.0,0.0,81,0.00,,,0.00,737.0,meteobridge,2013-10-27 01:54:00,
2013-10-26 21:59:00,66.4,60.8,30.14,WNW,293,1.6,3.1,82,0.00,,,0.00,737.0,meteobridge,2013-10-27 01:59:00,
2013-10-26 22:05:00,66.2,60.6,30.14,NW,315,0.7,0.7,82,0.00,,,0.00,737.0,meteobridge,2013-10-27 02:05:00,
2013-10-26 22:10:00,65.8,60.3,30.15,West,270,1.6,2.2,82,0.00,,,0.00,737.0,meteobridge,2013-10-27 02:10:00,
2013-10-26 22:15:00,65.8,60.3,30.15,North,0,0.7,0.7,82,0.00,,,0.00,701.0,meteobridge,2013-10-27 02:15:00,
2013-10-26 22:20:00,65.5,59.9,30.14,North,0,3.1,3.1,82,0.00,,,0.00,701.0,meteobridge,2013-10-27 02:20:00,
2013-10-26 22:25:00,65.3,59.7,30.14,SE,135,0.7,2.2,82,0.00,,,0.00,701.0,meteobridge,2013-10-27 02:25:00,
2013-10-26 22:30:00,65.1,59.5,30.14,East,90,1.6,1.6,82,0.00,,,0.00,701.0,meteobridge,2013-10-27 02:30:00,
2013-10-26 22:36:00,64.9,59.4,30.14,NNW,338,3.1,3.1,82,0.00,,,0.00,664.0,meteobridge,2013-10-27 02:36:00,
2013-10-26 22:41:00,64.8,59.2,30.14,SW,225,1.6,1.6,82,0.00,,,0.00,664.0,meteobridge,2013-10-27 02:41:00,
2013-10-26 22:46:00,64.6,59.0,30.14,NW,315,2.2,2.2,82,0.00,,,0.00,664.0,meteobridge,2013-10-27 02:46:00,
2013-10-26 22:51:00,64.4,58.8,30.14,North,0,0.0,3.1,82,0.00,,,0.00,664.0,meteobridge,2013-10-27 02:51:00,
2013-10-26 22:56:00,64.2,58.6,30.14,NW,315,1.6,2.2,82,0.00,,,0.00,664.0,meteobridge,2013-10-27 02:56:00,
2013-10-26 23:02:00,64.2,58.3,30.14,NW,315,4.5,4.5,81,0.00,,,0.00,664.0,meteobridge,2013-10-27 03:02:00,
2013-10-26 23:07:00,64.2,57.9,30.14,NW,315,3.1,4.5,80,0.00,,,0.00,628.0,meteobridge,2013-10-27 03:07:00,
2013-10-26 23:12:00,64.2,57.6,30.14,West,270,3.1,4.5,79,0.00,,,0.00,628.0,meteobridge,2013-10-27 03:12:00,
2013-10-26 23:17:00,64.2,57.6,30.14,West,270,3.1,3.1,79,0.00,,,0.00,628.0,meteobridge,2013-10-27 03:17:00,
2013-10-26 23:22:00,64.2,57.6,30.14,North,0,3.1,3.8,79,0.00,,,0.00,628.0,meteobridge,2013-10-27 03:22:00,
2013-10-26 23:27:00,64.0,57.4,30.14,East,90,2.2,2.2,79,0.00,,,0.00,591.0,meteobridge,2013-10-27 03:27:00,
2013-10-26 23:33:00,64.0,57.4,30.14,West,270,1.6,3.1,79,0.00,,,0.00,591.0,meteobridge,2013-10-27 03:33:00,
2013-10-26 23:38:00,64.0,57.4,30.14,West,270,1.6,1.6,79,0.00,,,0.00,591.0,meteobridge,2013-10-27 03:38:00,
2013-10-26 23:43:00,63.9,57.2,30.14,NW,315,0.7,1.6,79,0.00,,,0.00,591.0,meteobridge,2013-10-27 03:43:00,
2013-10-26 23:48:00,63.7,57.0,30.14,West,270,0.7,1.6,79,0.00,,,0.00,591.0,meteobridge,2013-10-27 03:48:00,
2013-10-26 23:53:00,63.5,56.8,30.14,NE,45,3.1,3.1,79,0.00,,,0.00,591.0,meteobridge,2013-10-27 03:53:00,
2013-10-26 23:58:00,63.3,57.0,30.14,NW,315,1.6,2.2,80,0.00,,,0.00,554.0,meteobridge,2013-10-27 03:58:00,